Hourly Data Report for June 27, 2020

EUREKA A
NUNAVUT
Current Station Operator: NAVCAN

79°59'40.000" N
85°48'43.000" W
82.90 m
2401208
WEU

Download Data

Hourly Data (June 2020)
Hourly Data Report for June 27, 2020
TIME
LST
Temp Definition
°C
Dew Point Definition
°C
Rel Hum Definition
%
Precip. Amount Definition
mm

Wind Dir Definition
10's deg

Wind Spd Definition
km/h
Visibility Definition
km
Stn Press Definition
kPa
Hmdx Definition


Wind Chill Definition


Weather Definition


00:00 14.3 5.0 53 LegendMM 27 9 LegendMM 100.70     LegendNANA
01:00 14.6 5.6 55 LegendMM 32 5 LegendMM 100.73     LegendNANA
02:00 16.2 6.0 50 LegendMM 36 8 LegendMM 100.76     LegendNANA
03:00 17.3 5.8 47 LegendMM 2 8 LegendMM 100.76     LegendNANA
04:00 16.4 5.7 49 LegendMM 31 7 LegendMM 100.77     LegendNANA
05:00 18.6 3.6 37 LegendMM 2 10 LegendMM 100.78     LegendNANA
06:00 12.3 3.5 55 LegendMM 27 9 LegendMM 100.78     LegendNANA
07:00 17.2 5.2 45 LegendMM 18 3 LegendMM 100.76     LegendNANA
08:00 17.9 4.7 41 LegendMM 27 5 LegendMM 100.75     LegendNANA
09:00 18.9 4.3 38 LegendMM 34 8 LegendMM 100.76     LegendNANA
10:00 19.1 4.4 37 LegendMM 31 5 LegendMM 100.74     LegendNANA
11:00 18.6 3.9 38 LegendMM 25 10 LegendMM 100.71     LegendNANA
12:00 20.1 1.8 29 LegendMM 20 8 LegendMM 100.72     LegendNANA
13:00 20.1 0.6 27 LegendMM 16 10 LegendMM 100.71     LegendNANA
14:00 20.7 1.2 27 LegendMM 14 17 LegendMM 100.72     LegendNANA
15:00 20.8 1.4 27 LegendMM 14 15 LegendMM 100.74     LegendNANA
16:00 20.5 1.3 28 LegendMM 14 17 LegendMM 100.74     LegendNANA
17:00 20.8 2.0 28 LegendMM 13 13 LegendMM 100.73     LegendNANA
18:00 20.1 2.2 30 LegendMM 14 24 LegendMM 100.74     LegendNANA
19:00 20.0 2.2 30 LegendMM 13 24 LegendMM 100.73     LegendNANA
20:00 19.5 2.2 31 LegendMM 15 18 LegendMM 100.75     LegendNANA
21:00 18.8 2.2 33 LegendMM 14 19 LegendMM 100.78     LegendNANA
22:00 18.1 1.9 34 LegendMM 15 14 LegendMM 100.79     LegendNANA
23:00 17.6 2.6 36 LegendMM 13 8 LegendMM 100.80     LegendNANA

Notes on Data Quality.

Legend

  • E = Estimated
  • M = Missing
  • NA = Not Available*
  • [empty] = Indicates an unobserved value
Date modified: